Home   Weather   Kleppe   Past weeks

Flag for Norway Past Weather in Kleppe, Norway — Yesterday and Last 2 Weeks

Now
58 °F

Passing clouds.


Feels Like: 59 °F
Forecast: 57 / 65 °F
Wind: 3 mph from South

Location: Stavanger / Sola

Current Time: Aug 30, 2016 at 11:01:03 PM

Latest Report: Aug 30, 2016 at 10:00 PM


Visibility: 7 mi

Pressure: 30.11 "Hg

Humidity: 92%

Dew Point: 56 °F

Location of KleppeLocation

Past Weather in Kleppe — Graph

°F

Kleppe Temperature Yesterday

Maximum temperature yesterday: 62 °F (at 2:00 PM)
Minimum temperature yesterday: 56 °F (at 3:00 AM)
Average temperature yesterday: 59 °F

High & Low Weather Summary for the Past Weeks

 TemperatureHumidityPressure
High70 °F (Aug 24, 3:00 PM)98% (Aug 16, 8:00 AM)30.27 "Hg (Aug 16, 8:00 AM)
Low49 °F (Aug 16, 5:00 AM)57% (Aug 20, 2:00 PM)29.68 "Hg (Aug 20, 2:00 PM)
Average60 °F85%30.01 "Hg
* Reported Aug 15 9:00 PM — Aug 30 9:00 PM, Kleppe, Weather by CustomWeather, © 2016

Note: Actual official high and low records may vary slightly from our data, if they occured in-between our weather recording intervals... More about our weather records

Advertising

Kleppe Weather History for the Previous 24 Hours

Scroll right to see more
 ConditionsComfort  
Time TempWeatherWind HumidityBarometerVisibility
9:00 PM
Tue, Aug 30
60 °FOvercast.2 mph90%30.12 "Hg9 mi
8:00 PM62 °FOvercast.2 mph86%30.11 "Hg9 mi
2:00 PM62 °FOvercast.6 mph88%30.11 "Hg7 mi
1:00 PM60 °FRain showers. Fog.6 mph94%30.09 "Hg3 mi
12:00 PM60 °FRain showers. Overcast.7 mph96%30.08 "Hg2 mi
11:00 AM60 °FDrizzle. Dense fog.6 mph96%30.06 "Hg2 mi
10:00 AM60 °FRain. Low clouds.6 mph94%30.04 "Hg3 mi
9:00 AM60 °FRain showers. Overcast.5 mph90%30.03 "Hg9 mi
8:00 AM57 °FRain showers. Overcast.5 mph93%30.02 "Hg7 mi
7:00 AM56 °FRain showers. Overcast.5 mph89%30.02 "Hg17 mi
6:00 AM55 °FRain showers. Overcast.3 mph87%30.03 "Hg22 mi
5:00 AM54 °FOvercast.3 mph86%30.04 "Hg25 mi
4:00 AM54 °FPassing clouds.3 mph85%30.06 "Hg31 mi
3:00 AM54 °FClear.2 mph82%30.06 "Hg31 mi
2:00 AM53 °FPassing clouds.2 mph80%30.06 "Hg31 mi
1:00 AM57 °FPassing clouds.2 mph75%30.06 "Hg31 mi
12:00 AM57 °FPassing clouds.3 mph77%30.06 "Hg31 mi
11:00 PM
Mon, Aug 29
58 °FRain showers. Passing clouds.5 mph79%30.05 "Hg16 mi
Weather by CustomWeather, © 2016

See weather overviewHow to use our weather pages